Location: City of Moscow
(46.7306°N, 116.9989°W)
Time: 02:17:32
(UTC+00:00)

ATLAS 2AS CENTAUR R/B - Pass Details

Date: 11 December 2025
Orbit: 1049 x 1162 km, 63.7° (Epoch: 14 January)

Event Time Altitude Azimuth Distance (km) Brightness Sun altitude
Rises 14:39:12 0° 225° (SW) 3,936 5.5 -7.3°
Reaches altitude 10° 14:41:55 10° 228° (SW) 2,964 4.8 -6.9°
Maximum altitude 14:48:55 71° 312° (NW) 1,145 2.7 -5.9°
Drops below altitude 10° 14:55:48 10° 37° (NE) 2,901 5.1 -4.8°
Sets 14:58:26 0° 39° (NE) 3,848 5.8 -4.4°
